EW4944 Milford CT US current weather conditions

sailwx.info

Wind from 204 at 3 knots gusting 8

Air temperature 26.7° C
Dewpoint 24.1° C

Last reported at 2020-Jul-11 20:06 UTC.
Time now 2020-Jul-11 21:16 UTC

Location: N 41°14' W 073°05'.
View on Google Maps.

See reports from other nearby stations

  
Tides and Currents Weather Stations Pressure Air Temp Water Temp Dewpoint Dewpoint Depression Visibility Wind Speed Wind Dir Waves Ship Positions
date/time (UTC)wind fromknots sea level pressurealtimeterstation pressurevisibilityair tempwater tempwave heightnotes
2020-Jul-11 20:06 204 3 gusting 8 26.7
2020-Jul-11 20:01 180 3 gusting 12 26.7
2020-Jul-11 19:56 225 3 gusting 12 26.7
2020-Jul-11 19:51 180 3 gusting 9 27.2
2020-Jul-11 19:46 150 4 gusting 10 27.2
2020-Jul-11 19:40 184 4 gusting 10 27.8
2020-Jul-11 19:35 216 5 gusting 12 27.8
2020-Jul-11 19:32 232 5 gusting 13 27.8
2020-Jul-11 19:26 189 5 gusting 13 27.8
2020-Jul-11 19:21 208 4 gusting 8 28.9
2020-Jul-11 19:16 191 4 gusting 9 28.3
2020-Jul-11 19:10 204 4 gusting 11 28.3
2020-Jul-11 19:06 143 4 gusting 11 28.3
2020-Jul-11 19:01 204 3 gusting 9 28.3
2020-Jul-11 18:55 187 3 gusting 13 28.3
2020-Jul-11 18:51 173 5 gusting 13 28.3
2020-Jul-11 18:47 178 3 gusting 10 28.3
2020-Jul-11 18:40 173 3 gusting 10 28.9
2020-Jul-11 18:35 148 2 gusting 10 28.9
2020-Jul-11 18:32 284 3 gusting 10 28.9
2020-Jul-11 18:26 178 3 gusting 10 28.9
2020-Jul-11 18:21 266 2 gusting 10 28.9
2020-Jul-11 18:17 195 2 gusting 7 28.9
2020-Jul-11 18:11 126 2 gusting 8 28.9
2020-Jul-11 18:05 178 4 gusting 10 28.3
2020-Jul-11 18:01 191 2 gusting 10 28.3
2020-Jul-11 17:55 147 3 gusting 9 28.3
2020-Jul-11 17:50 167 1 gusting 9 28.3
2020-Jul-11 17:40 184 3 gusting 7 28.3
2020-Jul-11 17:36 169 2 gusting 7 28.3
2020-Jul-11 17:32 184 2 gusting 6 28.3
2020-Jul-11 17:26 195 2 gusting 6 28.3
2020-Jul-11 17:20 164 2 gusting 6 28.3
2020-Jul-11 17:16 176 1 gusting 7 28.3
2020-Jul-11 17:10 112 2 gusting 9 28.3
2020-Jul-11 17:05 190 3 gusting 9 27.8
2020-Jul-11 17:01 160 2 gusting 7 28.3
2020-Jul-11 16:55 154 2 gusting 9 27.8
2020-Jul-11 16:51 198 3 gusting 9 27.8
2020-Jul-11 16:46 137 2 gusting 10 27.8
2020-Jul-11 16:41 157 3 gusting 10 27.8
2020-Jul-11 16:35 228 3 gusting 9 27.8
2020-Jul-11 16:32 219 4 gusting 9 27.2
2020-Jul-11 16:25 26.7
2020-Jul-11 16:21 157 2 gusting 10 26.7
2020-Jul-11 16:17 162 4 gusting 10 26.7
2020-Jul-11 16:11 225 2 gusting 9 26.1
2020-Jul-11 16:06 348 3 gusting 9 26.1
2020-Jul-11 16:01 155 1 gusting 7 26.1
2020-Jul-11 15:56 206 3 gusting 5 26.1
2020-Jul-11 15:51 144 1 gusting 6 26.1
2020-Jul-11 15:46 205 2 gusting 7 25.6
2020-Jul-11 15:41 132 4 gusting 7 25.0
2020-Jul-11 15:36 149 2 gusting 7 25.0
2020-Jul-11 15:32 248 1 gusting 9 25.0
2020-Jul-11 15:26 180 4 gusting 9 25.0
2020-Jul-11 15:21 219 2 gusting 8 25.6
2020-Jul-11 15:16 205 2 gusting 5 25.6
2020-Jul-11 15:11 225 2 gusting 5 25.0
2020-Jul-11 15:06 186 1 gusting 5 25.0
2020-Jul-11 15:01 207 0 gusting 4 25.0
2020-Jul-11 14:56 249 1 gusting 6 24.4
2020-Jul-11 14:50 186 2 gusting 6 24.4
2020-Jul-11 14:47 144 1 gusting 7 24.4
2020-Jul-11 14:40 173 2 gusting 7 24.4
2020-Jul-11 14:35 234 3 gusting 8 24.4
2020-Jul-11 14:31 202 3 gusting 8 24.4
2020-Jul-11 14:25 240 2 gusting 6 24.4
2020-Jul-11 14:20 183 1 gusting 7 25.0
2020-Jul-11 14:17 161 1 gusting 7 24.4
2020-Jul-11 14:11 205 3 gusting 10 25.0
2020-Jul-11 14:06 242 4 gusting 10 24.4
2020-Jul-11 14:01 198 5 gusting 9 25.0
2020-Jul-11 13:56 234 3 gusting 7 25.0
2020-Jul-11 13:51 234 2 gusting 11 25.6
2020-Jul-11 13:46 234 6 gusting 11 25.6
2020-Jul-11 13:41 259 2 gusting 11 25.6
2020-Jul-11 13:36 217 5 gusting 11 25.0
2020-Jul-11 13:32 223 6 gusting 11 25.0
2020-Jul-11 13:25 225 3 gusting 7 25.0
2020-Jul-11 13:20 193 2 gusting 10 25.0
2020-Jul-11 13:17 188 4 gusting 12 25.6
2020-Jul-11 13:11 233 2 gusting 12 25.6
2020-Jul-11 13:06 241 4 gusting 9 25.6
2020-Jul-11 13:02 221 4 gusting 8 25.6
2020-Jul-11 12:56 157 2 gusting 10 25.0
2020-Jul-11 12:51 215 3 gusting 10 25.6
2020-Jul-11 12:46 205 2 gusting 9 25.6
2020-Jul-11 12:40 232 2 gusting 9 25.6
2020-Jul-11 12:36 252 3 gusting 6 25.0
2020-Jul-11 12:34 205 2 gusting 12 25.0
2020-Jul-11 12:26 205 5 gusting 12 24.4
2020-Jul-11 12:20 246 4 gusting 10 24.4
2020-Jul-11 12:17 246 4 gusting 10 24.4
2020-Jul-11 12:11 247 6 gusting 10 24.4
2020-Jul-11 12:06 217 3 gusting 8 24.4
2020-Jul-11 12:03 171 4 gusting 12 24.4
2020-Jul-11 11:55 234 4 gusting 12 24.4
2020-Jul-11 11:50 188 4 gusting 13 24.4
2020-Jul-11 11:46 180 5 gusting 13 24.4
2020-Jul-11 11:40 200 4 gusting 11 24.4
2020-Jul-11 11:36 241 6 gusting 12 24.4
2020-Jul-11 11:31 202 5 gusting 12 24.4
2020-Jul-11 11:25 182 4 gusting 9 24.4
2020-Jul-11 11:21 176 3 gusting 10 24.4
2020-Jul-11 11:17 261 6 gusting 10 23.9
2020-Jul-11 11:11 235 2 gusting 8 23.9
2020-Jul-11 11:05 227 4 gusting 8 23.9
2020-Jul-11 11:01 213 3 gusting 8 23.9
2020-Jul-11 10:56 203 4 gusting 8 23.9
2020-Jul-11 10:51 228 2 gusting 10 23.9
2020-Jul-11 10:46 207 5 gusting 10 23.3
2020-Jul-11 10:40 202 4 gusting 9 23.3
2020-Jul-11 10:35 242 3 gusting 11 23.3
2020-Jul-11 10:32 247 3 gusting 14 23.3
2020-Jul-11 10:26 230 4 gusting 14 23.3
2020-Jul-11 10:21 229 4 gusting 9 23.3
2020-Jul-11 10:17 222 4 gusting 13 23.3
2020-Jul-11 10:11 196 6 gusting 13 23.3
2020-Jul-11 10:06 217 4 gusting 13 23.3
2020-Jul-11 10:01 211 5 gusting 13 23.3
2020-Jul-11 09:55 204 6 gusting 13 23.3
2020-Jul-11 09:51 186 5 gusting 12 23.3
2020-Jul-11 09:46 244 6 gusting 11 23.3
2020-Jul-11 09:40 214 5 gusting 12 23.3
2020-Jul-11 09:36 269 6 gusting 12 23.3
2020-Jul-11 09:32 228 5 gusting 12 23.3
2020-Jul-11 09:26 200 5 gusting 16 23.3
2020-Jul-11 09:21 203 8 gusting 16 23.3
2020-Jul-11 09:18 199 5 gusting 16 23.3
2020-Jul-11 09:11 188 6 gusting 16 23.3
2020-Jul-11 09:06 212 6 gusting 16 23.3
2020-Jul-11 09:01 209 6 gusting 14 23.3
2020-Jul-11 08:56 225 6 gusting 14 23.3
2020-Jul-11 08:51 232 7 gusting 14 23.3
2020-Jul-11 08:46 198 5 gusting 13 23.3
2020-Jul-11 08:41 199 6 gusting 15 23.3
2020-Jul-11 08:35 223 6 gusting 17 23.3
2020-Jul-11 08:33 204 6 gusting 17 23.3
2020-Jul-11 08:26 189 8 gusting 21 23.3
2020-Jul-11 08:21 208 8 gusting 21 23.3
2020-Jul-11 08:16 210 7 gusting 16 23.3
2020-Jul-11 08:11 219 8 gusting 16 23.3
2020-Jul-11 08:06 313 6 gusting 17 22.8
2020-Jul-11 08:01 242 7 gusting 17 22.8
2020-Jul-11 07:56 198 6 gusting 17 22.8
2020-Jul-11 07:50 187 6 gusting 15 22.8
2020-Jul-11 07:47 195 8 gusting 17 22.8
2020-Jul-11 07:40 272 7 gusting 17 22.8
2020-Jul-11 07:36 216 6 gusting 13 22.8
2020-Jul-11 07:31 224 6 gusting 15 22.8
2020-Jul-11 07:26 223 6 gusting 17 22.8
2020-Jul-11 07:20 240 7 gusting 19 22.8
2020-Jul-11 07:16 202 8 gusting 19 22.8
2020-Jul-11 07:10 205 7 gusting 17 22.8
2020-Jul-11 07:06 225 5 gusting 16 22.8
2020-Jul-11 07:01 158 7 gusting 19 22.8
2020-Jul-11 06:55 213 8 gusting 19 22.8
2020-Jul-11 06:50 253 5 gusting 16 22.8
2020-Jul-11 06:46 191 6 gusting 18 22.8
2020-Jul-11 06:41 165 6 gusting 18 22.8
2020-Jul-11 06:35 219 7 gusting 16 22.8
2020-Jul-11 06:31 207 6 gusting 16 22.8
2020-Jul-11 06:25 207 8 gusting 16 22.8
2020-Jul-11 06:20 225 8 gusting 20 22.8
2020-Jul-11 06:17 192 6 gusting 20 22.8
2020-Jul-11 06:10 152 5 gusting 16 22.8
2020-Jul-11 06:06 202 7 gusting 16 22.8
2020-Jul-11 06:02 211 4 gusting 12 22.8
2020-Jul-11 05:56 193 5 gusting 14 22.2
2020-Jul-11 05:51 173 6 gusting 14 22.2
2020-Jul-11 05:48 092 4 gusting 15 22.2
2020-Jul-11 05:41 214 6 gusting 19 22.2
2020-Jul-11 05:36 170 5 gusting 19 22.2
2020-Jul-11 05:32 132 5 gusting 18 22.2
2020-Jul-11 05:25 204 5 gusting 13 22.2
2020-Jul-11 05:21 183 5 gusting 15 22.2
2020-Jul-11 05:16 178 5 gusting 15 22.2
2020-Jul-11 05:10 134 4 gusting 15 22.2
2020-Jul-11 05:05 221 5 gusting 13 22.2
2020-Jul-11 05:01 155 4 gusting 11 22.2
2020-Jul-11 04:55 149 4 gusting 13 22.2
2020-Jul-11 04:50 267 3 gusting 13 22.2
2020-Jul-11 04:47 253 4 gusting 13 22.2
2020-Jul-11 04:41 141 4 gusting 14 22.2
2020-Jul-11 04:36 206 6 gusting 14 22.2
2020-Jul-11 04:31 282 4 gusting 13 22.2
2020-Jul-11 04:26 165 4 gusting 13 22.2
2020-Jul-11 04:20 132 2 gusting 15 22.2
2020-Jul-11 04:16 196 4 gusting 15 22.2
2020-Jul-11 04:11 128 4 gusting 13 22.2
2020-Jul-11 04:06 179 6 gusting 13 22.2
2020-Jul-11 04:01 179 4 gusting 19 22.2
2020-Jul-11 03:56 273 4 gusting 19 22.2
2020-Jul-11 03:51 219 2 gusting 16 22.2
2020-Jul-11 03:46 102 2 gusting 16 22.2
2020-Jul-11 03:41 240 6 gusting 16 22.2
2020-Jul-11 03:36 186 5 gusting 13 22.2
2020-Jul-11 03:31 126 4 gusting 14 22.2
2020-Jul-11 03:25 065 6 gusting 14 22.2
2020-Jul-11 03:20 185 5 gusting 13 22.2
2020-Jul-11 03:17 152 4 gusting 12 22.2
2020-Jul-11 03:11 178 6 gusting 16 22.2
2020-Jul-11 03:05 146 6 gusting 16 22.2
2020-Jul-11 03:01 123 4 gusting 19 22.2
2020-Jul-11 02:56 073 4 gusting 19 22.2
2020-Jul-11 02:50 217 5 gusting 18 22.2
2020-Jul-11 02:46 056 4 gusting 13 22.2
2020-Jul-11 02:40 044 5 gusting 14 22.2
2020-Jul-11 02:36 142 3 gusting 17 22.2
2020-Jul-11 02:31 293 5 gusting 17 22.2
2020-Jul-11 02:25 171 6 gusting 16 22.8
2020-Jul-11 02:21 113 4 gusting 13 22.8
2020-Jul-11 02:16 225 5 gusting 17 22.8
2020-Jul-11 02:11 116 3 gusting 17 22.8
2020-Jul-11 02:06 124 4 gusting 13 22.8
2020-Jul-11 02:02 088 6 gusting 13 22.8
2020-Jul-11 01:55 160 5 gusting 20 22.8
2020-Jul-11 01:50 068 5 gusting 20 22.8
2020-Jul-11 01:46 095 6 gusting 13 22.8
2020-Jul-11 01:41 076 5 gusting 13 22.8
2020-Jul-11 01:36 177 4 gusting 13 22.8
2020-Jul-11 01:31 092 4 gusting 13 22.8
2020-Jul-11 01:26 084 5 gusting 13 22.8
2020-Jul-11 01:21 153 4 gusting 13 22.8
2020-Jul-11 01:16 092 5 gusting 13 22.8
2020-Jul-11 01:11 141 5 gusting 14 22.8
2020-Jul-11 01:05 109 4 gusting 14 22.8
2020-Jul-11 01:02 046 6 gusting 12 22.8
2020-Jul-11 00:55 098 3 gusting 12 22.8
2020-Jul-11 00:51 074 4 gusting 14 22.8
2020-Jul-11 00:47 069 5 gusting 14 22.8
2020-Jul-11 00:40 082 3 gusting 10 22.8
2020-Jul-11 00:36 107 2 gusting 10 22.2
2020-Jul-11 00:31 118 4 gusting 10 22.2
2020-Jul-11 00:26 098 3 gusting 12 22.2
2020-Jul-11 00:20 034 4 gusting 12 22.2
2020-Jul-11 00:18 067 5 gusting 12 22.8
2020-Jul-11 00:11 107 4 gusting 13 22.8
2020-Jul-11 00:06 092 3 gusting 13 22.8
2020-Jul-11 00:01 066 5 gusting 10 22.8
2020-Jul-10 23:56 115 4 gusting 14 22.8
2020-Jul-10 23:50 043 6 gusting 14 22.8
2020-Jul-10 23:46 209 6 gusting 13 22.8
2020-Jul-10 23:41 015 5 gusting 13 22.8
2020-Jul-10 23:35 024 7 gusting 13 22.2
2020-Jul-10 23:32 051 4 gusting 13 22.2
2020-Jul-10 23:26 156 6 gusting 13 22.2
2020-Jul-10 23:21 096 6 gusting 18 22.2
2020-Jul-10 23:17 150 6 gusting 18 22.2
2020-Jul-10 23:11 138 6 gusting 16 22.8
2020-Jul-10 23:06 049 6 gusting 16 22.8
2020-Jul-10 23:01 084 6 gusting 15 22.8
2020-Jul-10 22:55 146 6 gusting 20 22.8
2020-Jul-10 22:51 167 6 gusting 20 22.8
2020-Jul-10 22:46 173 8 gusting 18 22.8
2020-Jul-10 22:40 057 7 gusting 18 22.8
2020-Jul-10 22:36 107 7 gusting 19 22.8
2020-Jul-10 22:31 111 7 gusting 19 22.8
2020-Jul-10 22:25 146 6 gusting 21 22.8
2020-Jul-10 22:20 087 6 gusting 23 22.8
2020-Jul-10 22:17 175 10 gusting 23 22.8
2020-Jul-10 22:10 101 7 gusting 19 22.8
2020-Jul-10 22:05 121 5 gusting 16 23.3
2020-Jul-10 22:01 083 6 gusting 19 23.3
2020-Jul-10 21:55 107 8 gusting 19 23.3
2020-Jul-10 21:50 071 5 gusting 26 23.3
2020-Jul-10 21:48 099 9 gusting 26 23.3
2020-Jul-10 21:40 086 6 gusting 17 23.3
2020-Jul-10 21:35 084 7 gusting 19 23.3
2020-Jul-10 21:31 080 6 gusting 19 23.3
2020-Jul-10 21:26 090 7 gusting 15 23.3
2020-Jul-10 21:20 094 7 gusting 17 23.3
2020-Jul-10 21:17 192 6 gusting 19 22.8
2020-Jul-10 21:11 112 7 gusting 19 22.8
2020-Jul-10 21:06 066 7 gusting 15 22.8
2020-Jul-10 21:01 064 4 gusting 16 22.8
2020-Jul-10 20:56 088 7 gusting 18 22.8
2020-Jul-10 20:50 138 8 gusting 18 23.3
2020-Jul-10 20:47 075 4 gusting 18 23.3
2020-Jul-10 20:41 106 5 gusting 18 23.3
2020-Jul-10 20:35 049 7 gusting 19 23.3
2020-Jul-10 20:31 053 7 gusting 19 23.3
2020-Jul-10 20:25 072 7 gusting 16 23.3
2020-Jul-10 20:20 096 3 gusting 15 23.3
2020-Jul-10 20:17 097 5 gusting 20 22.8
2020-Jul-10 20:10 140 6 gusting 20 22.8
2020-Jul-10 20:05 120 7 gusting 16 22.8
2020-Jul-10 20:01 121 7 gusting 14 23.3
2020-Jul-10 19:55 078 8 gusting 14 23.3
2020-Jul-10 19:51 064 6 gusting 14 23.3
2020-Jul-10 19:46 120 6 gusting 15 23.3
2020-Jul-10 19:40 076 6 gusting 15 23.3
2020-Jul-10 19:35 161 5 gusting 13 23.3
2020-Jul-10 19:32 078 5 gusting 12 23.3
2020-Jul-10 19:25 077 6 gusting 12 23.3
2020-Jul-10 19:21 062 4 gusting 16 23.3
2020-Jul-10 19:17 069 6 gusting 18 23.3
2020-Jul-10 19:10 132 6 gusting 18 23.3
2020-Jul-10 19:05 096 6 gusting 13 23.3
2020-Jul-10 19:02 024 6 gusting 15 23.3
2020-Jul-10 18:55 110 6 gusting 15 23.3
2020-Jul-10 18:51 040 5 gusting 15 23.3
2020-Jul-10 18:46 071 5 gusting 15 22.8
2020-Jul-10 18:41 078 6 gusting 12 22.8
2020-Jul-10 18:35 038 3 gusting 13 23.3
2020-Jul-10 18:31 121 4 gusting 13 23.3
2020-Jul-10 18:25 074 4 gusting 13 23.3
2020-Jul-10 18:21 092 6 gusting 13 23.3
2020-Jul-10 18:17 132 5 gusting 12 23.3
2020-Jul-10 18:11 271 6 gusting 12 23.3
2020-Jul-10 18:06 146 3 gusting 12 23.3
2020-Jul-10 18:01 122 3 gusting 11 23.3
2020-Jul-10 17:55 067 4 gusting 15 23.3
2020-Jul-10 17:51 076 6 gusting 15 23.3
2020-Jul-10 17:46 065 3 gusting 13 23.3
2020-Jul-10 17:41 028 5 gusting 15 23.3
2020-Jul-10 17:36 015 6 gusting 15 23.3
2020-Jul-10 17:31 134 5 gusting 18 22.8
2020-Jul-10 17:26 057 5 gusting 18 23.3
2020-Jul-10 17:20 119 4 gusting 12 23.3
2020-Jul-10 17:16 111 5 gusting 13 23.3
2020-Jul-10 17:11 110 6 gusting 13 23.3
2020-Jul-10 17:06 101 6 gusting 13 23.3
2020-Jul-10 17:01 025 5 gusting 12 23.3
2020-Jul-10 16:56 071 4 gusting 13 23.3
2020-Jul-10 16:50 139 5 gusting 13 23.3
2020-Jul-10 16:46 022 5 gusting 14 23.3
2020-Jul-10 16:40 144 5 gusting 15 23.3
2020-Jul-10 16:35 121 5 gusting 15 23.9
2020-Jul-10 16:32 128 4 gusting 13 23.9
2020-Jul-10 16:25 143 5 gusting 13 24.4
2020-Jul-10 16:21 038 4 gusting 13 24.4
2020-Jul-10 16:17 092 3 gusting 11 24.4
2020-Jul-10 16:11 123 5 gusting 15 24.4
2020-Jul-10 16:06 103 5 gusting 16 24.4
2020-Jul-10 16:01 140 7 gusting 16 24.4
2020-Jul-10 15:56 073 6 gusting 14 24.4
2020-Jul-10 15:50 061 5 gusting 14 24.4
2020-Jul-10 15:46 063 4 gusting 13 24.4
2020-Jul-10 15:41 063 4 gusting 13 24.4
2020-Jul-10 15:36 061 3 gusting 12 25.0
2020-Jul-10 15:31 161 3 gusting 13 25.0
2020-Jul-10 15:25 144 3 gusting 13 25.0
2020-Jul-10 15:20 157 3 gusting 13 25.6
2020-Jul-10 15:16 090 4 gusting 13 25.6
2020-Jul-10 15:10 089 6 gusting 13 25.6
2020-Jul-10 15:05 080 2 gusting 10 25.6
2020-Jul-10 15:01 057 5 gusting 12 25.6
2020-Jul-10 14:55 056 3 gusting 12 25.6
2020-Jul-10 14:50 064 4 gusting 12 25.0
2020-Jul-10 14:47 087 4 gusting 10 25.0
2020-Jul-10 14:40 126 1 gusting 12 25.0
2020-Jul-10 14:36 059 4 gusting 15 25.0
2020-Jul-10 14:32 076 5 gusting 15 25.0
2020-Jul-10 14:25 138 2 gusting 8 25.0
2020-Jul-10 14:20 064 2 gusting 10 24.4
2020-Jul-10 14:16 153 3 gusting 12 24.4
2020-Jul-10 14:11 005 4 gusting 12 24.4
2020-Jul-10 14:05 028 3 gusting 8 24.4
2020-Jul-10 14:01 061 3 gusting 9 24.4
2020-Jul-10 13:56 360 4 gusting 9 24.4
2020-Jul-10 13:51 111 4 gusting 9 24.4
2020-Jul-10 13:46 119 3 gusting 8 24.4
2020-Jul-10 13:41 051 3 gusting 8 24.4
2020-Jul-10 13:36 094 0 gusting 10 24.4
2020-Jul-10 13:31 059 1 gusting 10 24.4
2020-Jul-10 13:25 142 2 gusting 7 23.9
2020-Jul-10 13:20 101 2 gusting 7 23.9
2020-Jul-10 13:16 069 1 gusting 6 23.9
2020-Jul-10 13:11 137 2 gusting 6 23.9
2020-Jul-10 13:05 092 2 gusting 7 23.9
2020-Jul-10 13:01 068 2 gusting 8 23.9
2020-Jul-10 12:55 150 2 gusting 8 23.3
2020-Jul-10 12:51 074 3 gusting 8 23.3
2020-Jul-10 12:48 091 2 gusting 7 23.3
2020-Jul-10 12:40 032 1 gusting 6 23.9
2020-Jul-10 12:35 134 2 gusting 6 23.9
2020-Jul-10 12:32 103 2 gusting 6 23.9
2020-Jul-10 12:25 051 1 gusting 6 23.9
2020-Jul-10 12:20 064 3 gusting 6 23.9
2020-Jul-10 12:16 080 1 gusting 6 23.3
2020-Jul-10 12:10 098 2 gusting 6 23.3
2020-Jul-10 12:05 068 2 gusting 8 23.3
2020-Jul-10 12:01 067 4 gusting 8 23.3
2020-Jul-10 11:55 112 2 gusting 9 23.3
2020-Jul-10 11:50 049 4 gusting 9 23.3
2020-Jul-10 11:46 104 2 gusting 6 23.3
2020-Jul-10 11:41 074 2 gusting 6 23.3
2020-Jul-10 11:35 061 1 gusting 6 23.3
2020-Jul-10 11:32 036 1 gusting 5 23.3
2020-Jul-10 11:25 128 1 gusting 6 23.3
2020-Jul-10 11:21 141 1 gusting 6 23.3
2020-Jul-10 11:16 021 1 gusting 6 23.3
2020-Jul-10 11:10 065 1 gusting 7 23.3
2020-Jul-10 11:05 092 2 gusting 7 23.3
2020-Jul-10 11:01 015 0 gusting 5 23.3
2020-Jul-10 10:55 23.3
2020-Jul-10 10:50 059 1 gusting 4 22.8
2020-Jul-10 10:47 102 1 gusting 4 22.8
2020-Jul-10 10:41 069 2 gusting 4 22.8
2020-Jul-10 10:35 061 1 gusting 4 22.8
2020-Jul-10 10:32 030 1 gusting 3 22.8
2020-Jul-10 10:26 083 1 gusting 3 22.8
2020-Jul-10 10:21 058 1 gusting 3 22.8
2020-Jul-10 10:16 22.8
2020-Jul-10 10:10 093 0 gusting 5 22.8
2020-Jul-10 10:05 073 2 gusting 5 22.8
2020-Jul-10 10:02 032 0 gusting 6 22.8
2020-Jul-10 09:55 026 2 gusting 6 22.8
2020-Jul-10 09:50 088 2 gusting 6 22.8
2020-Jul-10 09:46 084 1 gusting 3 22.8
2020-Jul-10 09:40 048 1 gusting 3 22.8
2020-Jul-10 09:35 046 0 gusting 3 22.8
2020-Jul-10 09:32 071 0 gusting 2 22.8
2020-Jul-10 09:25 075 22.8
2020-Jul-10 09:21 082 22.8
2020-Jul-10 09:16 22.8
2020-Jul-10 09:10 22.8
2020-Jul-10 09:05 22.8
2020-Jul-10 09:01 134 22.8
2020-Jul-10 08:55 160 1 gusting 3 22.8
2020-Jul-10 08:51 114 0 gusting 3 22.8
2020-Jul-10 08:46 093 22.8
2020-Jul-10 08:40 22.8
2020-Jul-10 08:36 23.3
2020-Jul-10 08:32 114 23.3
2020-Jul-10 08:26 096 23.3
2020-Jul-10 08:20 086 0 gusting 3 23.3
2020-Jul-10 08:16 130 0 gusting 3 23.3
2020-Jul-10 08:10 092 1 gusting 3 23.3
2020-Jul-10 08:06 089 0 gusting 4 23.3
2020-Jul-10 08:02 098 1 gusting 4 23.3
2020-Jul-10 07:55 055 1 gusting 6 23.3
2020-Jul-10 07:51 134 0 gusting 6 23.3
2020-Jul-10 07:46 059 1 gusting 4 23.3
2020-Jul-10 07:42 133 0 gusting 5 23.3
2020-Jul-10 07:35 23.3
2020-Jul-10 07:31 086 0 gusting 3 23.3
2020-Jul-10 07:25 111 23.3
2020-Jul-10 07:20 153 0 gusting 2 23.3
2020-Jul-10 07:16 23.3
2020-Jul-10 07:10 071 0 gusting 3 23.3
2020-Jul-10 07:06 080 0 gusting 3 23.3
2020-Jul-10 07:01 094 1 gusting 3 23.3
2020-Jul-10 06:55 23.3
2020-Jul-10 06:50 078 0 gusting 3 23.3
2020-Jul-10 06:48 119 0 gusting 6 23.3
2020-Jul-10 06:40 084 1 gusting 6 23.3
2020-Jul-10 06:35 105 0 gusting 3 23.3
2020-Jul-10 06:32 108 23.3
2020-Jul-10 06:26 232 23.3
2020-Jul-10 06:20 335 23.3
2020-Jul-10 06:18 23.3
2020-Jul-10 06:11 115 23.3
2020-Jul-10 06:05 085 0 gusting 3 23.3
2020-Jul-10 06:01 23.3
2020-Jul-10 05:55 22.8
2020-Jul-10 05:51 126 22.8
2020-Jul-10 05:46 22.8
2020-Jul-10 05:41 22.8
2020-Jul-10 05:35 22.2
2020-Jul-10 05:32 22.2
2020-Jul-10 05:26 22.2
2020-Jul-10 05:20 22.2
2020-Jul-10 05:18 22.2
2020-Jul-10 05:11 22.2
2020-Jul-10 05:06 22.2
2020-Jul-10 05:03 22.2
2020-Jul-10 04:55 22.2
2020-Jul-10 04:50 22.2
2020-Jul-10 04:48 22.2
2020-Jul-10 04:40 22.2
2020-Jul-10 04:35 22.2
2020-Jul-10 04:31 22.2
2020-Jul-10 04:25 22.2
2020-Jul-10 04:21 22.2
2020-Jul-10 04:17 22.2
2020-Jul-10 04:10 22.2
2020-Jul-10 04:06 22.2
2020-Jul-10 04:02 22.2
2020-Jul-10 03:55 22.2
2020-Jul-10 03:52 22.2
2020-Jul-10 03:50 22.2
2020-Jul-10 03:41 22.2
2020-Jul-10 03:36 22.2
2020-Jul-10 03:31 22.8
2020-Jul-10 03:26 22.8
2020-Jul-10 03:20 071 22.8
2020-Jul-10 03:16 071 22.8
2020-Jul-10 03:10 22.8
2020-Jul-10 03:05 22.8
2020-Jul-10 03:01 22.8
2020-Jul-10 02:55 22.8
2020-Jul-10 02:50 22.8
2020-Jul-10 02:46 071 0 gusting 1 22.8
2020-Jul-10 02:40 071 0 gusting 1 22.8
2020-Jul-10 02:36 071 22.8
2020-Jul-10 02:31 071 22.8
2020-Jul-10 02:26 23.3
2020-Jul-10 02:21 23.3
2020-Jul-10 02:17 071 23.3
2020-Jul-10 02:10 071 0 gusting 1 23.3
2020-Jul-10 02:05 071 23.3
2020-Jul-10 02:02 23.3
2020-Jul-10 01:56 23.9
2020-Jul-10 01:51 23.9
2020-Jul-10 01:46 23.9
2020-Jul-10 01:41 23.9
2020-Jul-10 01:35 206 23.9
2020-Jul-10 01:33 206 23.9
2020-Jul-10 01:25 23.9
2020-Jul-10 01:20 23.9
2020-Jul-10 01:16 23.9
2020-Jul-10 01:11 23.9
2020-Jul-10 01:05 24.4
2020-Jul-10 01:02 24.4
2020-Jul-10 00:56 24.4
2020-Jul-10 00:50 215 25.0
2020-Jul-10 00:46 25.0
2020-Jul-10 00:40 200 0 gusting 3 25.0
2020-Jul-10 00:35 25.0
2020-Jul-10 00:31 249 25.0
2020-Jul-10 00:26 212 0 gusting 5 25.6
2020-Jul-10 00:20 194 1 gusting 6 25.6
2020-Jul-10 00:17 178 1 gusting 6 25.6
2020-Jul-10 00:10 244 1 gusting 5 25.6
2020-Jul-10 00:06 194 1 gusting 6 25.6
2020-Jul-10 00:02 219 1 gusting 6 26.1
2020-Jul-09 23:56 200 0 gusting 4 26.1
2020-Jul-09 23:50 209 0 gusting 6 26.1
2020-Jul-09 23:47 219 2 gusting 6 26.1
2020-Jul-09 23:41 180 1 gusting 7 26.7
2020-Jul-09 23:35 174 2 gusting 7 26.7
2020-Jul-09 23:31 213 4 gusting 6 26.7
2020-Jul-09 23:25 247 3 gusting 6 26.7
2020-Jul-09 23:20 245 2 gusting 6 26.7
2020-Jul-09 23:16 186 1 gusting 7 27.2
2020-Jul-09 23:10 196 4 gusting 7 27.2
2020-Jul-09 23:05 180 2 gusting 10 27.2
2020-Jul-09 23:01 204 3 gusting 10 27.2
2020-Jul-09 22:55 190 4 gusting 8 27.2
2020-Jul-09 22:51 214 4 gusting 8 27.8
2020-Jul-09 22:46 229 3 gusting 9 27.8
2020-Jul-09 22:40 240 2 gusting 9 27.8
2020-Jul-09 22:35 207 3 gusting 9 27.8
2020-Jul-09 22:32 225 3 gusting 9 27.8
2020-Jul-09 22:26 220 3 gusting 7 28.3
2020-Jul-09 22:20 227 4 gusting 7 28.3
2020-Jul-09 22:16 224 2 gusting 6 28.3
2020-Jul-09 22:10 201 1 gusting 6 28.3
2020-Jul-09 22:05 213 1 gusting 7 28.3
2020-Jul-09 22:01 196 2 gusting 7 28.3
2020-Jul-09 21:55 217 2 gusting 8 28.3
2020-Jul-09 21:50 225 3 gusting 8 28.3
2020-Jul-09 21:47 207 3 gusting 7 28.3
2020-Jul-09 21:40 213 2 gusting 7 28.3
2020-Jul-09 21:38 225 3 gusting 7 28.3
2020-Jul-09 21:31 105 3 gusting 7 28.3
2020-Jul-09 21:26 238 2 gusting 8 28.3
2020-Jul-09 21:22 216 4 gusting 8 28.3
2020-Jul-09 21:17 211 3 gusting 8 28.3
2020-Jul-09 21:10 230 4 gusting 8 28.9
2020-Jul-09 21:06 258 2 gusting 6 28.9
2020-Jul-09 21:02 107 0 gusting 6 28.9